Time,TemperatureF,DewpointF,PressureIn,WindDirection,WindDirectionDegrees,WindSpeedMPH,WindSpeedGustMPH,Humidity,HourlyPrecipIn,Conditions,Clouds,dailyrainin,SoftwareType,DateUTC
2013-02-02 00:00:00,7.1,2.5,30.06,East,100,1.0,2.0,81,0.00,,,0.00,vanprod-2.3,2013-02-02 06:00:00,
2013-02-02 00:05:00,6.9,2.3,30.06,East,100,0.0,1.0,81,0.00,,,0.00,vanprod-2.3,2013-02-02 06:05:00,
2013-02-02 00:10:00,6.7,2.1,30.06,East,100,0.0,1.0,81,0.00,,,0.00,vanprod-2.3,2013-02-02 06:10:00,
2013-02-02 00:15:00,6.5,1.9,30.06,East,100,0.0,0.0,81,0.00,,,0.00,vanprod-2.3,2013-02-02 06:15:00,
2013-02-02 00:20:00,6.5,1.9,30.06,East,100,0.0,2.0,81,0.00,,,0.00,vanprod-2.3,2013-02-02 06:20:00,
2013-02-02 00:25:00,6.5,2.2,30.06,East,100,0.0,2.0,82,0.00,,,0.00,vanprod-2.3,2013-02-02 06:25:00,
2013-02-02 00:30:00,6.4,1.8,30.07,East,100,0.0,0.0,81,0.00,,,0.00,vanprod-2.3,2013-02-02 06:30:00,
2013-02-02 00:35:00,6.4,1.8,30.07,East,100,0.0,0.0,81,0.00,,,0.00,vanprod-2.3,2013-02-02 06:35:00,
2013-02-02 00:40:00,6.2,1.6,30.07,East,100,0.0,2.0,81,0.00,,,0.00,vanprod-2.3,2013-02-02 06:40:00,
2013-02-02 00:45:00,6.0,1.4,30.07,East,100,0.0,0.0,81,0.00,,,0.00,vanprod-2.3,2013-02-02 06:45:00,
2013-02-02 00:50:00,5.8,1.2,30.07,East,100,0.0,0.0,81,0.00,,,0.00,vanprod-2.3,2013-02-02 06:50:00,
2013-02-02 00:55:00,5.6,1.0,30.07,East,100,0.0,0.0,81,0.00,,,0.00,vanprod-2.3,2013-02-02 06:55:00,
2013-02-02 01:00:00,5.5,1.2,30.07,East,100,0.0,0.0,82,0.00,,,0.00,vanprod-2.3,2013-02-02 07:00:00,
2013-02-02 01:05:00,5.5,1.2,30.07,East,100,0.0,0.0,82,0.00,,,0.00,vanprod-2.3,2013-02-02 07:05:00,
2013-02-02 01:10:00,5.3,1.0,30.08,East,100,0.0,0.0,82,0.00,,,0.00,vanprod-2.3,2013-02-02 07:10:00,
2013-02-02 01:15:00,5.1,0.8,30.08,East,100,0.0,1.0,82,0.00,,,0.00,vanprod-2.3,2013-02-02 07:15:00,
2013-02-02 01:20:00,5.1,0.8,30.08,East,100,0.0,1.0,82,0.00,,,0.00,vanprod-2.3,2013-02-02 07:20:00,
2013-02-02 01:25:00,4.9,0.6,30.08,East,100,1.0,2.0,82,0.00,,,0.00,vanprod-2.3,2013-02-02 07:25:00,
2013-02-02 01:30:00,4.9,0.6,30.08,East,100,0.0,0.0,82,0.00,,,0.00,vanprod-2.3,2013-02-02 07:30:00,
2013-02-02 01:35:00,4.7,0.4,30.08,East,100,0.0,0.0,82,0.00,,,0.00,vanprod-2.3,2013-02-02 07:35:00,
2013-02-02 01:40:00,4.5,0.2,30.09,East,100,0.0,0.0,82,0.00,,,0.00,vanprod-2.3,2013-02-02 07:40:00,
2013-02-02 01:45:00,4.3,0.0,30.09,East,100,0.0,0.0,82,0.00,,,0.00,vanprod-2.3,2013-02-02 07:45:00,
2013-02-02 01:50:00,4.3,0.0,30.09,East,100,0.0,2.0,82,0.00,,,0.00,vanprod-2.3,2013-02-02 07:50:00,
2013-02-02 01:55:00,4.2,-0.1,30.09,East,100,1.0,2.0,82,0.00,,,0.00,vanprod-2.3,2013-02-02 07:55:00,
2013-02-02 02:00:00,4.2,-0.1,30.09,East,100,1.0,1.0,82,0.00,,,0.00,vanprod-2.3,2013-02-02 08:00:00,
2013-02-02 02:05:00,4.0,-0.3,30.09,East,100,1.0,2.0,82,0.00,,,0.00,vanprod-2.3,2013-02-02 08:05:00,
2013-02-02 02:10:00,4.0,-0.3,30.10,East,100,0.0,1.0,82,0.00,,,0.00,vanprod-2.3,2013-02-02 08:10:00,
2013-02-02 02:15:00,3.8,-0.5,30.10,East,100,1.0,1.0,82,0.00,,,0.00,vanprod-2.3,2013-02-02 08:15:00,
2013-02-02 02:20:00,3.8,-0.5,30.10,East,100,2.0,2.0,82,0.00,,,0.00,vanprod-2.3,2013-02-02 08:20:00,
2013-02-02 02:25:00,3.6,-0.7,30.11,East,100,2.0,2.0,82,0.00,,,0.00,vanprod-2.3,2013-02-02 08:25:00,
2013-02-02 02:30:00,3.4,-1.1,30.11,East,100,2.0,3.0,81,0.00,,,0.00,vanprod-2.3,2013-02-02 08:30:00,
2013-02-02 02:35:00,3.2,-1.3,30.11,East,100,2.0,2.0,81,0.00,,,0.00,vanprod-2.3,2013-02-02 08:35:00,
2013-02-02 02:40:00,3.0,-1.5,30.11,East,100,1.0,2.0,81,0.00,,,0.00,vanprod-2.3,2013-02-02 08:40:00,
2013-02-02 02:45:00,3.0,-1.2,30.11,East,100,1.0,3.0,82,0.00,,,0.00,vanprod-2.3,2013-02-02 08:45:00,
2013-02-02 02:50:00,3.0,-1.2,30.11,East,99,1.0,3.0,82,0.00,,,0.00,vanprod-2.3,2013-02-02 08:50:00,
2013-02-02 02:55:00,3.0,-1.2,30.11,East,97,2.0,2.0,82,0.00,,,0.00,vanprod-2.3,2013-02-02 08:55:00,
2013-02-02 03:00:00,3.0,-1.2,30.11,East,86,2.0,2.0,82,0.00,,,0.00,vanprod-2.3,2013-02-02 09:00:00,
2013-02-02 03:05:00,3.0,-1.2,30.11,NNE,28,2.0,3.0,82,0.00,,,0.00,vanprod-2.3,2013-02-02 09:05:00,
2013-02-02 03:10:00,3.0,-1.5,30.11,North,360,5.0,5.0,81,0.00,,,0.00,vanprod-2.3,2013-02-02 09:10:00,
2013-02-02 03:15:00,3.0,-1.5,30.11,North,360,3.0,3.0,81,0.00,,,0.00,vanprod-2.3,2013-02-02 09:15:00,
2013-02-02 03:20:00,2.9,-1.6,30.11,North,360,3.0,3.0,81,0.00,,,0.00,vanprod-2.3,2013-02-02 09:20:00,
2013-02-02 03:25:00,2.7,-1.8,30.12,North,360,2.0,5.0,81,0.00,,,0.00,vanprod-2.3,2013-02-02 09:25:00,
2013-02-02 03:30:00,2.5,-2.0,30.11,North,360,4.0,4.0,81,0.00,,,0.00,vanprod-2.3,2013-02-02 09:30:00,
2013-02-02 03:35:00,2.5,-2.0,30.11,North,360,3.0,5.0,81,0.00,,,0.00,vanprod-2.3,2013-02-02 09:35:00,
2013-02-02 03:40:00,2.3,-2.2,30.12,North,360,4.0,4.0,81,0.00,,,0.00,vanprod-2.3,2013-02-02 09:40:00,
2013-02-02 03:45:00,2.3,-2.2,30.12,North,360,3.0,7.0,81,0.00,,,0.00,vanprod-2.3,2013-02-02 09:45:00,
2013-02-02 03:50:00,2.1,-2.4,30.12,North,360,3.0,4.0,81,0.00,,,0.00,vanprod-2.3,2013-02-02 09:50:00,
2013-02-02 03:55:00,2.1,-2.4,30.12,North,360,3.0,6.0,81,0.00,,,0.00,vanprod-2.3,2013-02-02 09:55:00,
2013-02-02 04:00:00,2.1,-2.4,30.12,North,350,4.0,7.0,81,0.00,,,0.00,vanprod-2.3,2013-02-02 10:00:00,
2013-02-02 04:05:00,2.1,-2.4,30.12,North,349,5.0,7.0,81,0.00,,,0.00,vanprod-2.3,2013-02-02 10:05:00,
2013-02-02 04:10:00,2.1,-2.4,30.13,North,356,3.0,3.0,81,0.00,,,0.00,vanprod-2.3,2013-02-02 10:10:00,
2013-02-02 04:15:00,1.9,-2.6,30.13,North,356,3.0,5.0,81,0.00,,,0.00,vanprod-2.3,2013-02-02 10:15:00,
2013-02-02 04:20:00,1.9,-2.6,30.13,North,359,3.0,6.0,81,0.00,,,0.00,vanprod-2.3,2013-02-02 10:20:00,
2013-02-02 04:25:00,1.9,-2.6,30.13,North,359,3.0,7.0,81,0.00,,,0.00,vanprod-2.3,2013-02-02 10:25:00,
2013-02-02 04:30:00,1.9,-2.6,30.13,North,359,2.0,6.0,81,0.00,,,0.00,vanprod-2.3,2013-02-02 10:30:00,
2013-02-02 04:35:00,1.9,-2.6,30.13,North,358,3.0,10.0,81,0.00,,,0.00,vanprod-2.3,2013-02-02 10:35:00,
2013-02-02 04:40:00,1.9,-2.6,30.13,North,359,4.0,4.0,81,0.00,,,0.00,vanprod-2.3,2013-02-02 10:40:00,
2013-02-02 04:45:00,1.7,-3.0,30.14,North,0,4.0,5.0,80,0.00,,,0.00,vanprod-2.3,2013-02-02 10:45:00,
2013-02-02 04:50:00,1.5,-3.0,30.14,North,0,3.0,6.0,81,0.00,,,0.00,vanprod-2.3,2013-02-02 10:50:00,
2013-02-02 04:55:00,1.5,-3.0,30.14,North,0,2.0,3.0,81,0.00,,,0.00,vanprod-2.3,2013-02-02 10:55:00,
2013-02-02 05:00:00,1.3,-3.2,30.14,North,0,4.0,7.0,81,0.00,,,0.00,vanprod-2.3,2013-02-02 11:00:00,
2013-02-02 05:05:00,1.3,-3.2,30.14,North,0,3.0,6.0,81,0.00,,,0.00,vanprod-2.3,2013-02-02 11:05:00,
2013-02-02 05:10:00,1.3,-3.2,30.14,North,0,3.0,5.0,81,0.00,,,0.00,vanprod-2.3,2013-02-02 11:10:00,
2013-02-02 05:15:00,1.2,-3.3,30.14,North,0,5.0,6.0,81,0.00,,,0.00,vanprod-2.3,2013-02-02 11:15:00,
2013-02-02 05:20:00,1.2,-3.3,30.15,North,0,3.0,3.0,81,0.00,,,0.00,vanprod-2.3,2013-02-02 11:20:00,
2013-02-02 05:25:00,1.0,-3.5,30.15,North,0,4.0,6.0,81,0.00,,,0.00,vanprod-2.3,2013-02-02 11:25:00,
2013-02-02 05:30:00,1.0,-3.5,30.15,North,0,2.0,3.0,81,0.00,,,0.00,vanprod-2.3,2013-02-02 11:30:00,
2013-02-02 05:35:00,1.0,-3.5,30.15,North,0,2.0,2.0,81,0.00,,,0.00,vanprod-2.3,2013-02-02 11:35:00,
2013-02-02 05:40:00,0.8,-3.7,30.16,North,0,1.0,1.0,81,0.00,,,0.00,vanprod-2.3,2013-02-02 11:40:00,
2013-02-02 05:45:00,0.8,-3.7,30.16,North,0,2.0,5.0,81,0.00,,,0.00,vanprod-2.3,2013-02-02 11:45:00,
2013-02-02 05:50:00,0.8,-3.7,30.16,North,0,3.0,3.0,81,0.00,,,0.00,vanprod-2.3,2013-02-02 11:50:00,
2013-02-02 05:55:00,0.8,-3.7,30.16,North,0,2.0,3.0,81,0.00,,,0.00,vanprod-2.3,2013-02-02 11:55:00,
2013-02-02 06:00:00,0.8,-3.7,30.16,North,0,1.0,2.0,81,0.00,,,0.00,vanprod-2.3,2013-02-02 12:00:00,
2013-02-02 06:05:00,0.6,-3.8,30.16,North,0,1.0,3.0,81,0.00,,,0.00,vanprod-2.3,2013-02-02 12:05:00,
2013-02-02 06:10:00,0.6,-4.1,30.16,North,0,3.0,5.0,80,0.00,,,0.00,vanprod-2.3,2013-02-02 12:10:00,
2013-02-02 06:15:00,0.6,-3.8,30.16,North,0,2.0,5.0,81,0.00,,,0.00,vanprod-2.3,2013-02-02 12:15:00,
2013-02-02 06:20:00,0.6,-4.1,30.16,North,0,1.0,2.0,80,0.00,,,0.00,vanprod-2.3,2013-02-02 12:20:00,
2013-02-02 06:25:00,0.6,-4.1,30.16,North,0,0.0,1.0,80,0.00,,,0.00,vanprod-2.3,2013-02-02 12:25:00,
2013-02-02 06:30:00,0.6,-4.1,30.16,North,0,0.0,0.0,80,0.00,,,0.00,vanprod-2.3,2013-02-02 12:30:00,
2013-02-02 06:35:00,0.4,-4.3,30.16,North,0,0.0,0.0,80,0.00,,,0.00,vanprod-2.3,2013-02-02 12:35:00,
2013-02-02 06:40:00,0.4,-4.3,30.16,North,0,2.0,2.0,80,0.00,,,0.00,vanprod-2.3,2013-02-02 12:40:00,
2013-02-02 06:45:00,0.4,-4.3,30.16,North,0,3.0,5.0,80,0.00,,,0.00,vanprod-2.3,2013-02-02 12:45:00,
2013-02-02 06:50:00,0.2,-4.5,30.16,North,0,1.0,1.0,80,0.00,,,0.00,vanprod-2.3,2013-02-02 12:50:00,
2013-02-02 06:55:00,0.2,-4.5,30.15,North,0,2.0,2.0,80,0.00,,,0.00,vanprod-2.3,2013-02-02 12:55:00,
2013-02-02 07:00:00,0.0,-4.7,30.15,North,0,2.0,4.0,80,0.00,,,0.00,vanprod-2.3,2013-02-02 13:00:00,
2013-02-02 07:05:00,0.0,-4.7,30.15,North,0,2.0,2.0,80,0.00,,,0.00,vanprod-2.3,2013-02-02 13:05:00,
2013-02-02 07:10:00,-0.2,-4.9,30.15,North,0,2.0,3.0,80,0.00,,,0.00,vanprod-2.3,2013-02-02 13:10:00,
2013-02-02 07:15:00,-0.2,-4.9,30.16,North,0,0.0,0.0,80,0.00,,,0.00,vanprod-2.3,2013-02-02 13:15:00,
2013-02-02 07:20:00,-0.4,-5.1,30.16,North,0,1.0,1.0,80,0.00,,,0.00,vanprod-2.3,2013-02-02 13:20:00,
2013-02-02 07:25:00,-0.4,-5.1,30.16,North,0,0.0,0.0,80,0.00,,,0.00,vanprod-2.3,2013-02-02 13:25:00,
2013-02-02 07:30:00,-0.5,-5.2,30.16,North,0,0.0,0.0,80,0.00,,,0.00,vanprod-2.3,2013-02-02 13:30:00,
2013-02-02 07:35:00,-0.5,-5.2,30.16,North,0,1.0,1.0,80,0.00,,,0.00,vanprod-2.3,2013-02-02 13:35:00,
2013-02-02 07:40:00,-0.7,-5.4,30.15,North,0,1.0,2.0,80,0.00,,,0.00,vanprod-2.3,2013-02-02 13:40:00,
2013-02-02 07:45:00,-0.7,-5.4,30.15,North,0,1.0,2.0,80,0.00,,,0.00,vanprod-2.3,2013-02-02 13:45:00,
2013-02-02 07:50:00,-0.9,-5.6,30.15,North,0,0.0,1.0,80,0.00,,,0.00,vanprod-2.3,2013-02-02 13:50:00,
2013-02-02 07:55:00,-0.9,-5.6,30.14,North,0,0.0,0.0,80,0.00,,,0.00,vanprod-2.3,2013-02-02 13:55:00,
2013-02-02 08:00:00,-0.9,-5.6,30.14,North,0,0.0,0.0,80,0.00,,,0.00,vanprod-2.3,2013-02-02 14:00:00,
2013-02-02 08:05:00,-0.9,-5.6,30.15,North,0,0.0,1.0,80,0.00,,,0.00,vanprod-2.3,2013-02-02 14:05:00,
2013-02-02 08:10:00,-0.9,-5.6,30.15,North,0,0.0,1.0,80,0.00,,,0.00,vanprod-2.3,2013-02-02 14:10:00,
2013-02-02 08:15:00,-0.7,-5.4,30.15,North,0,0.0,0.0,80,0.00,,,0.00,vanprod-2.3,2013-02-02 14:15:00,
2013-02-02 08:20:00,-0.5,-5.2,30.16,North,0,1.0,1.0,80,0.00,,,0.00,vanprod-2.3,2013-02-02 14:20:00,
2013-02-02 08:25:00,-0.5,-5.2,30.16,North,0,0.0,0.0,80,0.00,,,0.00,vanprod-2.3,2013-02-02 14:25:00,
2013-02-02 08:30:00,-0.4,-5.1,30.16,North,0,0.0,0.0,80,0.00,,,0.00,vanprod-2.3,2013-02-02 14:30:00,
2013-02-02 08:35:00,-0.2,-4.9,30.16,North,0,0.0,0.0,80,0.00,,,0.00,vanprod-2.3,2013-02-02 14:35:00,
2013-02-02 08:40:00,0.0,-4.7,30.16,North,0,1.0,1.0,80,0.00,,,0.00,vanprod-2.3,2013-02-02 14:40:00,
2013-02-02 08:45:00,0.2,-4.8,30.16,North,0,1.0,1.0,79,0.00,,,0.00,vanprod-2.3,2013-02-02 14:45:00,
2013-02-02 08:50:00,0.4,-4.6,30.16,North,0,1.0,1.0,79,0.00,,,0.00,vanprod-2.3,2013-02-02 14:50:00,
2013-02-02 08:55:00,0.4,-4.6,30.16,North,0,1.0,1.0,79,0.00,,,0.00,vanprod-2.3,2013-02-02 14:55:00,
2013-02-02 09:00:00,0.8,-4.2,30.16,North,0,1.0,1.0,79,0.00,,,0.00,vanprod-2.3,2013-02-02 15:00:00,
2013-02-02 09:05:00,1.0,-4.2,30.16,North,0,1.0,1.0,78,0.00,,,0.00,vanprod-2.3,2013-02-02 15:05:00,
2013-02-02 09:10:00,1.0,-4.2,30.16,North,0,1.0,2.0,78,0.00,,,0.00,vanprod-2.3,2013-02-02 15:10:00,
2013-02-02 09:15:00,1.3,-3.9,30.16,North,0,0.0,2.0,78,0.00,,,0.00,vanprod-2.3,2013-02-02 15:15:00,
2013-02-02 09:20:00,1.3,-4.2,30.16,North,0,0.0,0.0,77,0.00,,,0.00,vanprod-2.3,2013-02-02 15:20:00,
2013-02-02 09:25:00,1.3,-4.2,30.15,North,0,1.0,1.0,77,0.00,,,0.00,vanprod-2.3,2013-02-02 15:25:00,
2013-02-02 09:30:00,1.5,-4.0,30.15,North,0,1.0,2.0,77,0.00,,,0.00,vanprod-2.3,2013-02-02 15:30:00,
2013-02-02 09:35:00,1.5,-4.0,30.15,North,0,0.0,0.0,77,0.00,,,0.00,vanprod-2.3,2013-02-02 15:35:00,
2013-02-02 09:40:00,1.7,-3.8,30.14,North,0,0.0,1.0,77,0.00,,,0.00,vanprod-2.3,2013-02-02 15:40:00,
2013-02-02 09:45:00,1.9,-3.9,30.14,North,0,1.0,0.0,76,0.00,,,0.00,vanprod-2.3,2013-02-02 15:45:00,
2013-02-02 09:50:00,1.9,-3.9,30.15,North,0,0.0,0.0,76,0.00,,,0.00,vanprod-2.3,2013-02-02 15:50:00,
2013-02-02 09:55:00,2.1,-3.7,30.15,North,0,1.0,2.0,76,0.00,,,0.00,vanprod-2.3,2013-02-02 15:55:00,
2013-02-02 10:00:00,2.1,-4.0,30.15,North,0,1.0,0.0,75,0.00,,,0.00,vanprod-2.3,2013-02-02 16:00:00,
2013-02-02 10:05:00,2.5,-3.6,30.16,North,0,0.0,0.0,75,0.00,,,0.00,vanprod-2.3,2013-02-02 16:05:00,
2013-02-02 10:10:00,2.9,-3.2,30.16,North,0,2.0,3.0,75,0.00,,,0.00,vanprod-2.3,2013-02-02 16:10:00,
2013-02-02 10:15:00,2.7,-3.7,30.16,North,0,2.0,2.0,74,0.00,,,0.00,vanprod-2.3,2013-02-02 16:15:00,
2013-02-02 10:20:00,2.9,-3.5,30.16,North,0,2.0,4.0,74,0.00,,,0.00,vanprod-2.3,2013-02-02 16:20:00,
2013-02-02 10:25:00,2.9,-3.5,30.16,North,0,1.0,0.0,74,0.00,,,0.00,vanprod-2.3,2013-02-02 16:25:00,
2013-02-02 10:30:00,3.0,-3.4,30.16,North,0,2.0,3.0,74,0.00,,,0.00,vanprod-2.3,2013-02-02 16:30:00,
2013-02-02 10:35:00,3.0,-3.7,30.16,North,0,2.0,2.0,73,0.00,,,0.00,vanprod-2.3,2013-02-02 16:35:00,
2013-02-02 10:40:00,3.0,-3.7,30.15,North,0,1.0,2.0,73,0.00,,,0.00,vanprod-2.3,2013-02-02 16:40:00,
2013-02-02 10:45:00,3.2,-3.5,30.16,North,0,1.0,2.0,73,0.00,,,0.00,vanprod-2.3,2013-02-02 16:45:00,
2013-02-02 10:50:00,3.6,-3.1,30.16,North,0,0.0,1.0,73,0.00,,,0.00,vanprod-2.3,2013-02-02 16:50:00,
2013-02-02 10:55:00,4.0,-3.0,30.15,North,0,1.0,1.0,72,0.00,,,0.00,vanprod-2.3,2013-02-02 16:55:00,
2013-02-02 11:00:00,4.2,-2.8,30.16,North,0,2.0,2.0,72,0.00,,,0.00,vanprod-2.3,2013-02-02 17:00:00,
2013-02-02 11:05:00,4.2,-2.8,30.15,North,0,0.0,0.0,72,0.00,,,0.00,vanprod-2.3,2013-02-02 17:05:00,
2013-02-02 11:10:00,4.3,-2.7,30.15,North,0,1.0,2.0,72,0.00,,,0.00,vanprod-2.3,2013-02-02 17:10:00,
2013-02-02 11:15:00,4.3,-2.7,30.15,North,0,1.0,2.0,72,0.00,,,0.00,vanprod-2.3,2013-02-02 17:15:00,
2013-02-02 11:20:00,4.2,-2.8,30.15,North,0,2.0,2.0,72,0.00,,,0.00,vanprod-2.3,2013-02-02 17:20:00,
2013-02-02 11:25:00,4.3,-2.4,30.14,North,0,1.0,2.0,73,0.00,,,0.00,vanprod-2.3,2013-02-02 17:25:00,
2013-02-02 11:30:00,4.7,-1.7,30.15,North,0,2.0,5.0,74,0.00,,,0.00,vanprod-2.3,2013-02-02 17:30:00,
2013-02-02 11:35:00,4.7,-2.0,30.14,North,0,2.0,2.0,73,0.00,,,0.00,vanprod-2.3,2013-02-02 17:35:00,
2013-02-02 11:40:00,4.9,-1.8,30.14,North,0,2.0,3.0,73,0.00,,,0.00,vanprod-2.3,2013-02-02 17:40:00,
2013-02-02 11:45:00,4.7,-2.3,30.14,North,0,2.0,6.0,72,0.00,,,0.00,vanprod-2.3,2013-02-02 17:45:00,
2013-02-02 11:50:00,5.3,-1.7,30.14,North,0,4.0,6.0,72,0.00,,,0.00,vanprod-2.3,2013-02-02 17:50:00,
2013-02-02 11:55:00,5.3,-1.7,30.13,NNW,342,3.0,4.0,72,0.00,,,0.00,vanprod-2.3,2013-02-02 17:55:00,
2013-02-02 12:00:00,5.6,-1.5,30.13,NNW,336,4.0,5.0,72,0.00,,,0.00,vanprod-2.3,2013-02-02 18:00:00,
2013-02-02 12:05:00,6.0,-1.1,30.13,WNW,287,3.0,3.0,72,0.00,,,0.00,vanprod-2.3,2013-02-02 18:05:00,
2013-02-02 12:10:00,6.2,-1.2,30.11,WNW,285,5.0,7.0,71,0.00,,,0.00,vanprod-2.3,2013-02-02 18:10:00,
2013-02-02 12:15:00,6.5,-0.9,30.11,West,279,5.0,7.0,71,0.00,,,0.00,vanprod-2.3,2013-02-02 18:15:00,
2013-02-02 12:20:00,6.5,-0.9,30.11,West,276,3.0,3.0,71,0.00,,,0.00,vanprod-2.3,2013-02-02 18:20:00,
2013-02-02 12:25:00,7.1,-0.6,30.10,West,276,3.0,3.0,70,0.00,,,0.00,vanprod-2.3,2013-02-02 18:25:00,
2013-02-02 12:30:00,7.2,-0.5,30.09,West,270,4.0,6.0,70,0.00,,,0.00,vanprod-2.3,2013-02-02 18:30:00,
2013-02-02 12:35:00,7.6,-0.4,30.09,West,270,3.0,8.0,69,0.00,,,0.00,vanprod-2.3,2013-02-02 18:35:00,
2013-02-02 12:40:00,7.6,-0.7,30.09,West,261,4.0,7.0,68,0.00,,,0.00,vanprod-2.3,2013-02-02 18:40:00,
2013-02-02 12:45:00,7.8,-0.2,30.08,WSW,258,2.0,2.0,69,0.00,,,0.00,vanprod-2.3,2013-02-02 18:45:00,
2013-02-02 12:50:00,8.1,0.1,30.08,WSW,258,2.0,5.0,69,0.00,,,0.00,vanprod-2.3,2013-02-02 18:50:00,
2013-02-02 12:55:00,8.5,0.4,30.08,WSW,258,3.0,5.0,69,0.00,,,0.00,vanprod-2.3,2013-02-02 18:55:00,
2013-02-02 13:00:00,8.7,0.3,30.07,WSW,258,4.0,5.0,68,0.00,,,0.00,vanprod-2.3,2013-02-02 19:00:00,
2013-02-02 13:05:00,8.1,-0.3,30.06,WSW,257,5.0,7.0,68,0.00,,,0.00,vanprod-2.3,2013-02-02 19:05:00,
2013-02-02 13:10:00,7.8,0.1,30.06,WSW,256,3.0,5.0,70,0.00,,,0.00,vanprod-2.3,2013-02-02 19:10:00,
2013-02-02 13:15:00,7.8,0.1,30.05,WSW,251,2.0,2.0,70,0.00,,,0.00,vanprod-2.3,2013-02-02 19:15:00,
2013-02-02 13:20:00,7.8,0.1,30.05,WSW,250,3.0,5.0,70,0.00,,,0.00,vanprod-2.3,2013-02-02 19:20:00,
2013-02-02 13:25:00,7.4,0.0,30.05,WSW,248,5.0,6.0,71,0.00,,,0.00,vanprod-2.3,2013-02-02 19:25:00,
2013-02-02 13:30:00,7.8,0.7,30.05,WSW,248,3.0,6.0,72,0.00,,,0.00,vanprod-2.3,2013-02-02 19:30:00,
2013-02-02 13:35:00,7.8,0.4,30.05,WSW,247,3.0,8.0,71,0.00,,,0.00,vanprod-2.3,2013-02-02 19:35:00,
2013-02-02 13:40:00,7.9,1.1,30.05,WSW,247,2.0,4.0,73,0.00,,,0.00,vanprod-2.3,2013-02-02 19:40:00,
2013-02-02 13:45:00,7.8,0.7,30.05,WSW,247,3.0,3.0,72,0.00,,,0.00,vanprod-2.3,2013-02-02 19:45:00,
2013-02-02 13:50:00,7.9,1.1,30.05,WSW,246,4.0,7.0,73,0.00,,,0.00,vanprod-2.3,2013-02-02 19:50:00,
2013-02-02 13:55:00,7.9,0.8,30.04,WSW,241,3.0,3.0,72,0.00,,,0.00,vanprod-2.3,2013-02-02 19:55:00,
2013-02-02 14:00:00,8.1,1.3,30.04,WSW,241,3.0,5.0,73,0.00,,,0.00,vanprod-2.3,2013-02-02 20:00:00,
2013-02-02 14:05:00,8.1,1.3,30.03,WSW,241,5.0,5.0,73,0.00,,,0.00,vanprod-2.3,2013-02-02 20:05:00,
2013-02-02 14:10:00,8.3,1.7,30.03,WSW,241,2.0,4.0,74,0.00,,,0.00,vanprod-2.3,2013-02-02 20:10:00,
2013-02-02 14:15:00,8.5,1.6,30.03,WSW,241,5.0,7.0,73,0.00,,,0.00,vanprod-2.3,2013-02-02 20:15:00,
2013-02-02 14:20:00,8.5,1.9,30.03,WSW,241,3.0,5.0,74,0.00,,,0.00,vanprod-2.3,2013-02-02 20:20:00,
2013-02-02 14:25:00,8.3,1.7,30.03,WSW,241,2.0,4.0,74,0.00,,,0.00,vanprod-2.3,2013-02-02 20:25:00,
2013-02-02 14:30:00,8.5,1.9,30.02,WSW,241,4.0,6.0,74,0.00,,,0.00,vanprod-2.3,2013-02-02 20:30:00,
2013-02-02 14:35:00,8.7,2.4,30.02,WSW,241,2.0,5.0,75,0.00,,,0.00,vanprod-2.3,2013-02-02 20:35:00,
2013-02-02 14:40:00,8.8,2.5,30.01,WSW,241,2.0,6.0,75,0.00,,,0.00,vanprod-2.3,2013-02-02 20:40:00,
2013-02-02 14:45:00,8.8,2.8,30.00,SW,234,4.0,8.0,76,0.00,,,0.00,vanprod-2.3,2013-02-02 20:45:00,
2013-02-02 14:50:00,9.0,3.3,30.00,SW,234,2.0,2.0,77,0.00,,,0.00,vanprod-2.3,2013-02-02 20:50:00,
2013-02-02 14:55:00,9.4,3.7,30.00,SW,233,5.0,8.0,77,0.00,,,0.00,vanprod-2.3,2013-02-02 20:55:00,
2013-02-02 15:00:00,9.5,4.0,30.00,SW,233,2.0,4.0,78,0.00,,,0.00,vanprod-2.3,2013-02-02 21:00:00,
2013-02-02 15:05:00,9.5,4.0,29.99,SW,230,3.0,3.0,78,0.00,,,0.00,vanprod-2.3,2013-02-02 21:05:00,
2013-02-02 15:10:00,9.7,4.2,29.99,SW,230,3.0,3.0,78,0.00,,,0.00,vanprod-2.3,2013-02-02 21:10:00,
2013-02-02 15:15:00,9.9,4.4,29.98,SW,230,3.0,3.0,78,0.00,,,0.00,vanprod-2.3,2013-02-02 21:15:00,
2013-02-02 15:20:00,10.0,4.5,29.97,SW,230,3.0,5.0,78,0.00,,,0.00,vanprod-2.3,2013-02-02 21:20:00,
2013-02-02 15:25:00,10.2,4.7,29.97,SW,230,3.0,6.0,78,0.00,,,0.00,vanprod-2.3,2013-02-02 21:25:00,
2013-02-02 15:30:00,10.2,4.7,29.97,SW,230,4.0,7.0,78,0.00,,,0.00,vanprod-2.3,2013-02-02 21:30:00,
2013-02-02 15:35:00,10.2,5.0,29.97,SW,229,3.0,6.0,79,0.00,,,0.00,vanprod-2.3,2013-02-02 21:35:00,
2013-02-02 15:40:00,10.6,5.4,29.97,SW,229,1.0,1.0,79,0.00,,,0.00,vanprod-2.3,2013-02-02 21:40:00,
2013-02-02 15:45:00,10.7,5.5,29.97,SW,229,1.0,2.0,79,0.00,,,0.00,vanprod-2.3,2013-02-02 21:45:00,
2013-02-02 15:50:00,10.9,5.7,29.97,SW,229,2.0,3.0,79,0.00,,,0.00,vanprod-2.3,2013-02-02 21:50:00,
2013-02-02 15:55:00,10.9,6.0,29.97,SW,229,2.0,3.0,80,0.00,,,0.00,vanprod-2.3,2013-02-02 21:55:00,
2013-02-02 16:00:00,10.9,6.2,29.97,SW,229,3.0,6.0,81,0.00,,,0.00,vanprod-2.3,2013-02-02 22:00:00,
2013-02-02 16:05:00,10.9,6.5,29.97,SW,229,2.0,2.0,82,0.00,,,0.00,vanprod-2.3,2013-02-02 22:05:00,
2013-02-02 16:10:00,11.1,7.0,29.96,SW,229,1.0,1.0,83,0.01,,,0.01,vanprod-2.3,2013-02-02 22:10:00,
2013-02-02 16:15:00,11.2,7.1,29.96,SW,229,1.0,1.0,83,0.01,,,0.01,vanprod-2.3,2013-02-02 22:15:00,
2013-02-02 16:20:00,11.2,7.1,29.95,SW,229,1.0,2.0,83,0.01,,,0.01,vanprod-2.3,2013-02-02 22:20:00,
2013-02-02 16:25:00,11.4,7.3,29.95,SW,229,0.0,0.0,83,0.01,,,0.01,vanprod-2.3,2013-02-02 22:25:00,
2013-02-02 16:30:00,11.4,7.3,29.95,SW,229,1.0,2.0,83,0.01,,,0.01,vanprod-2.3,2013-02-02 22:30:00,
2013-02-02 16:35:00,11.4,7.3,29.95,SW,229,2.0,2.0,83,0.02,,,0.02,vanprod-2.3,2013-02-02 22:35:00,
2013-02-02 16:40:00,11.4,7.3,29.95,SW,229,1.0,1.0,83,0.02,,,0.02,vanprod-2.3,2013-02-02 22:40:00,
2013-02-02 16:45:00,11.6,7.7,29.95,SW,229,1.0,0.0,84,0.02,,,0.02,vanprod-2.3,2013-02-02 22:45:00,
2013-02-02 16:50:00,11.6,7.7,29.95,SW,229,1.0,1.0,84,0.02,,,0.02,vanprod-2.3,2013-02-02 22:50:00,
2013-02-02 16:55:00,11.8,7.9,29.94,SW,229,2.0,2.0,84,0.02,,,0.02,vanprod-2.3,2013-02-02 22:55:00,
2013-02-02 17:00:00,11.8,7.9,29.94,SW,229,0.0,1.0,84,0.02,,,0.02,vanprod-2.3,2013-02-02 23:00:00,
2013-02-02 17:05:00,11.8,7.9,29.94,SW,229,1.0,3.0,84,0.02,,,0.02,vanprod-2.3,2013-02-02 23:05:00,
2013-02-02 17:10:00,11.9,8.0,29.94,SW,229,0.0,2.0,84,0.01,,,0.02,vanprod-2.3,2013-02-02 23:10:00,
2013-02-02 17:15:00,11.9,8.0,29.94,SW,229,2.0,3.0,84,0.01,,,0.02,vanprod-2.3,2013-02-02 23:15:00,
2013-02-02 17:20:00,12.1,8.5,29.93,SW,229,2.0,3.0,85,0.01,,,0.02,vanprod-2.3,2013-02-02 23:20:00,
2013-02-02 17:25:00,12.1,8.5,29.93,SW,229,0.0,1.0,85,0.01,,,0.02,vanprod-2.3,2013-02-02 23:25:00,
2013-02-02 17:30:00,12.3,8.7,29.93,SW,229,1.0,2.0,85,0.01,,,0.02,vanprod-2.3,2013-02-02 23:30:00,
2013-02-02 17:35:00,12.3,8.7,29.92,SW,229,2.0,2.0,85,0.00,,,0.02,vanprod-2.3,2013-02-02 23:35:00,
2013-02-02 17:40:00,12.4,9.0,29.92,SW,229,0.0,0.0,86,0.00,,,0.02,vanprod-2.3,2013-02-02 23:40:00,
2013-02-02 17:45:00,12.6,9.2,29.93,SW,229,1.0,2.0,86,0.00,,,0.02,vanprod-2.3,2013-02-02 23:45:00,
2013-02-02 17:50:00,12.8,9.4,29.93,SW,229,1.0,2.0,86,0.00,,,0.02,vanprod-2.3,2013-02-02 23:50:00,
2013-02-02 17:55:00,13.0,9.6,29.92,SW,229,4.0,6.0,86,0.00,,,0.02,vanprod-2.3,2013-02-02 23:55:00,
2013-02-02 18:00:00,13.1,9.7,29.92,SW,229,2.0,2.0,86,0.00,,,0.02,vanprod-2.3,2013-02-03 00:00:00,
2013-02-02 18:05:00,13.1,9.7,29.93,SW,229,1.0,1.0,86,0.00,,,0.02,vanprod-2.3,2013-02-03 00:05:00,
2013-02-02 18:10:00,13.3,9.9,29.92,SW,229,2.0,3.0,86,0.00,,,0.02,vanprod-2.3,2013-02-03 00:10:00,
2013-02-02 18:15:00,13.3,9.9,29.92,SW,229,3.0,5.0,86,0.00,,,0.02,vanprod-2.3,2013-02-03 00:15:00,
2013-02-02 18:20:00,13.5,10.4,29.92,SW,229,2.0,3.0,87,0.00,,,0.02,vanprod-2.3,2013-02-03 00:20:00,
2013-02-02 18:25:00,13.5,10.4,29.92,SW,229,2.0,2.0,87,0.00,,,0.02,vanprod-2.3,2013-02-03 00:25:00,
2013-02-02 18:30:00,13.6,10.5,29.92,SW,229,2.0,2.0,87,0.00,,,0.02,vanprod-2.3,2013-02-03 00:30:00,
2013-02-02 18:35:00,13.8,10.7,29.92,SW,229,2.0,3.0,87,0.00,,,0.02,vanprod-2.3,2013-02-03 00:35:00,
2013-02-02 18:40:00,13.8,10.7,29.93,SW,229,2.0,3.0,87,0.00,,,0.02,vanprod-2.3,2013-02-03 00:40:00,
2013-02-02 18:45:00,13.9,10.8,29.92,SW,229,0.0,1.0,87,0.00,,,0.02,vanprod-2.3,2013-02-03 00:45:00,
2013-02-02 18:50:00,13.9,10.8,29.93,SW,229,1.0,2.0,87,0.00,,,0.02,vanprod-2.3,2013-02-03 00:50:00,
2013-02-02 18:55:00,13.9,10.8,29.93,SW,229,1.0,1.0,87,0.00,,,0.02,vanprod-2.3,2013-02-03 00:55:00,
2013-02-02 19:00:00,13.9,10.8,29.93,SW,229,2.0,6.0,87,0.00,,,0.02,vanprod-2.3,2013-02-03 01:00:00,
2013-02-02 19:05:00,13.8,10.7,29.93,SW,229,2.0,4.0,87,0.00,,,0.02,vanprod-2.3,2013-02-03 01:05:00,
2013-02-02 19:10:00,13.8,10.7,29.94,SW,229,2.0,2.0,87,0.00,,,0.02,vanprod-2.3,2013-02-03 01:10:00,
2013-02-02 19:15:00,13.9,10.8,29.94,SW,229,3.0,3.0,87,0.00,,,0.02,vanprod-2.3,2013-02-03 01:15:00,
2013-02-02 19:20:00,13.9,10.8,29.94,SW,229,1.0,2.0,87,0.00,,,0.02,vanprod-2.3,2013-02-03 01:20:00,
2013-02-02 19:25:00,13.8,10.7,29.94,SW,229,0.0,0.0,87,0.00,,,0.02,vanprod-2.3,2013-02-03 01:25:00,
2013-02-02 19:30:00,13.8,10.4,29.94,SW,229,0.0,2.0,86,0.00,,,0.02,vanprod-2.3,2013-02-03 01:30:00,
2013-02-02 19:35:00,13.8,10.7,29.94,SW,229,0.0,1.0,87,0.00,,,0.02,vanprod-2.3,2013-02-03 01:35:00,
2013-02-02 19:40:00,13.8,10.7,29.95,SW,229,1.0,1.0,87,0.00,,,0.02,vanprod-2.3,2013-02-03 01:40:00,
2013-02-02 19:45:00,13.8,10.7,29.95,SW,229,0.0,1.0,87,0.00,,,0.02,vanprod-2.3,2013-02-03 01:45:00,
2013-02-02 19:50:00,13.8,10.7,29.96,SW,229,0.0,0.0,87,0.00,,,0.02,vanprod-2.3,2013-02-03 01:50:00,
2013-02-02 19:55:00,13.8,10.4,29.95,SW,229,0.0,2.0,86,0.00,,,0.02,vanprod-2.3,2013-02-03 01:55:00,
2013-02-02 20:00:00,13.9,10.5,29.96,SW,229,0.0,1.0,86,0.00,,,0.02,vanprod-2.3,2013-02-03 02:00:00,
2013-02-02 20:05:00,13.9,10.5,29.97,SW,229,1.0,4.0,86,0.00,,,0.02,vanprod-2.3,2013-02-03 02:05:00,
2013-02-02 20:10:00,14.4,11.2,29.97,SW,229,0.0,1.0,87,0.00,,,0.02,vanprod-2.3,2013-02-03 02:10:00,
2013-02-02 20:15:00,14.9,11.7,29.97,SW,229,2.0,4.0,87,0.00,,,0.02,vanprod-2.3,2013-02-03 02:15:00,
2013-02-02 20:20:00,15.2,12.0,29.97,SW,229,1.0,2.0,87,0.00,,,0.02,vanprod-2.3,2013-02-03 02:20:00,
2013-02-02 20:25:00,15.4,12.2,29.97,SW,229,1.0,3.0,87,0.00,,,0.02,vanprod-2.3,2013-02-03 02:25:00,
2013-02-02 20:30:00,15.4,12.0,29.97,SW,229,1.0,1.0,86,0.00,,,0.02,vanprod-2.3,2013-02-03 02:30:00,
2013-02-02 20:35:00,15.4,12.0,29.98,SW,229,1.0,0.0,86,0.00,,,0.02,vanprod-2.3,2013-02-03 02:35:00,
2013-02-02 20:40:00,15.6,12.4,29.98,SW,229,3.0,5.0,87,0.00,,,0.02,vanprod-2.3,2013-02-03 02:40:00,
2013-02-02 20:45:00,15.6,12.2,29.99,WSW,248,3.0,6.0,86,0.00,,,0.02,vanprod-2.3,2013-02-03 02:45:00,
2013-02-02 20:50:00,15.6,12.2,29.99,WNW,290,5.0,5.0,86,0.00,,,0.02,vanprod-2.3,2013-02-03 02:50:00,
2013-02-02 20:55:00,15.6,11.9,29.99,WNW,302,5.0,10.0,85,0.00,,,0.02,vanprod-2.3,2013-02-03 02:55:00,
2013-02-02 21:00:00,15.6,11.9,29.99,NW,318,5.0,7.0,85,0.00,,,0.02,vanprod-2.3,2013-02-03 03:00:00,
2013-02-02 21:05:00,15.6,11.9,30.00,NNW,336,5.0,9.0,85,0.00,,,0.02,vanprod-2.3,2013-02-03 03:05:00,
2013-02-02 21:10:00,15.6,11.9,30.00,NNW,341,7.0,11.0,85,0.00,,,0.02,vanprod-2.3,2013-02-03 03:10:00,
2013-02-02 21:15:00,15.6,11.6,30.00,NW,311,5.0,6.0,84,0.00,,,0.02,vanprod-2.3,2013-02-03 03:15:00,
2013-02-02 21:20:00,15.6,11.4,29.99,NW,309,7.0,11.0,83,0.00,,,0.02,vanprod-2.3,2013-02-03 03:20:00,
2013-02-02 21:25:00,15.6,11.4,30.00,NW,321,6.0,17.0,83,0.00,,,0.02,vanprod-2.3,2013-02-03 03:25:00,
2013-02-02 21:30:00,15.6,11.1,30.00,NW,315,6.0,7.0,82,0.00,,,0.02,vanprod-2.3,2013-02-03 03:30:00,
2013-02-02 21:35:00,15.6,10.8,30.00,North,356,5.0,6.0,81,0.00,,,0.02,vanprod-2.3,2013-02-03 03:35:00,
2013-02-02 21:40:00,15.4,10.3,30.00,NNW,337,6.0,8.0,80,0.00,,,0.02,vanprod-2.3,2013-02-03 03:40:00,
2013-02-02 21:45:00,15.2,10.2,30.01,NNW,332,7.0,10.0,80,0.00,,,0.02,vanprod-2.3,2013-02-03 03:45:00,
2013-02-02 21:50:00,15.2,10.2,30.01,NW,313,6.0,12.0,80,0.00,,,0.02,vanprod-2.3,2013-02-03 03:50:00,
2013-02-02 21:55:00,15.1,10.1,30.01,NW,313,3.0,3.0,80,0.00,,,0.02,vanprod-2.3,2013-02-03 03:55:00,
2013-02-02 22:00:00,14.9,9.6,30.02,NW,326,9.0,9.0,79,0.00,,,0.02,vanprod-2.3,2013-02-03 04:00:00,
2013-02-02 22:05:00,14.9,9.6,30.02,NNW,344,8.0,13.0,79,0.00,,,0.02,vanprod-2.3,2013-02-03 04:05:00,
2013-02-02 22:10:00,14.7,9.4,30.02,NNW,332,6.0,10.0,79,0.00,,,0.02,vanprod-2.3,2013-02-03 04:10:00,
2013-02-02 22:15:00,14.6,9.3,30.02,NNW,338,6.0,14.0,79,0.00,,,0.02,vanprod-2.3,2013-02-03 04:15:00,
2013-02-02 22:20:00,14.6,9.3,30.03,NW,316,6.0,14.0,79,0.00,,,0.02,vanprod-2.3,2013-02-03 04:20:00,
2013-02-02 22:25:00,14.6,9.3,30.03,NW,309,5.0,14.0,79,0.00,,,0.02,vanprod-2.3,2013-02-03 04:25:00,
2013-02-02 22:30:00,14.6,9.3,30.03,NW,325,6.0,12.0,79,0.00,,,0.02,vanprod-2.3,2013-02-03 04:30:00,
2013-02-02 22:35:00,14.4,8.8,30.03,NW,319,5.0,5.0,78,0.00,,,0.02,vanprod-2.3,2013-02-03 04:35:00,
2013-02-02 22:40:00,14.3,8.7,30.03,NW,306,5.0,6.0,78,0.00,,,0.02,vanprod-2.3,2013-02-03 04:40:00,
2013-02-02 22:45:00,14.1,8.5,30.03,NNW,328,5.0,5.0,78,0.00,,,0.02,vanprod-2.3,2013-02-03 04:45:00,
2013-02-02 22:50:00,14.1,8.5,30.03,NNW,331,8.0,14.0,78,0.00,,,0.02,vanprod-2.3,2013-02-03 04:50:00,
2013-02-02 22:55:00,14.1,8.5,30.03,NNW,335,6.0,8.0,78,0.00,,,0.02,vanprod-2.3,2013-02-03 04:55:00,
2013-02-02 23:00:00,14.1,8.5,30.04,WNW,299,6.0,7.0,78,0.00,,,0.02,vanprod-2.3,2013-02-03 05:00:00,
2013-02-02 23:01:00,14.1,8.5,30.04,WNW,301,5.0,7.0,78,0.00,,,0.02,vanprod-2.3,2013-02-03 05:01:00,
2013-02-02 23:06:00,14.1,8.5,30.03,NNW,329,5.0,12.0,78,0.00,,,0.02,vanprod-2.3,2013-02-03 05:06:00,
2013-02-02 23:11:00,14.1,8.5,30.04,NW,325,5.0,5.0,78,0.00,,,0.02,vanprod-2.3,2013-02-03 05:11:00,
2013-02-02 23:16:00,13.9,8.3,30.05,NNW,347,5.0,7.0,78,0.00,,,0.02,vanprod-2.3,2013-02-03 05:16:00,
2013-02-02 23:21:00,13.8,8.2,30.05,NNW,338,7.0,11.0,78,0.00,,,0.02,vanprod-2.3,2013-02-03 05:21:00,
2013-02-02 23:26:00,13.6,7.7,30.05,NW,324,9.0,9.0,77,0.00,,,0.02,vanprod-2.3,2013-02-03 05:26:00,
2013-02-02 23:31:00,13.5,7.9,30.05,NNW,344,6.0,11.0,78,0.00,,,0.02,vanprod-2.3,2013-02-03 05:31:00,
2013-02-02 23:36:00,13.5,7.9,30.04,North,350,9.0,14.0,78,0.00,,,0.02,vanprod-2.3,2013-02-03 05:36:00,
2013-02-02 23:41:00,13.3,7.7,30.05,NNW,343,5.0,5.0,78,0.00,,,0.02,vanprod-2.3,2013-02-03 05:41:00,
2013-02-02 23:46:00,13.1,7.5,30.04,NNW,345,9.0,14.0,78,0.00,,,0.02,vanprod-2.3,2013-02-03 05:46:00,
2013-02-02 23:51:00,13.0,7.4,30.05,NNW,346,6.0,10.0,78,0.00,,,0.02,vanprod-2.3,2013-02-03 05:51:00,
2013-02-02 23:56:00,13.0,7.7,30.05,North,351,5.0,5.0,79,0.00,,,0.02,vanprod-2.3,2013-02-03 05:56:00,